Hourly Data Report for October 12, 2014

All times are specified in Local Standard Time (LST). Add 1 hour to adjust for Daylight Saving Time where and when it is observed.

POND INLET A
NUNAVUT

72°41'22.000" N
77°58'08.000" W
61.60 m
2403206
71095
YIO

Related Data

No related data is available for this station

Download Data

Hourly Data (October 2014)
Hourly Data Report for October 12, 2014
Temp Definition
°C
Dew Point Temp Definition
°C
Rel Hum Definition
%
Wind Dir Definition
10's deg

Wind Spd Definition
km/h
Visibility Definition
km
Stn Press Definition
kPa
Hmdx Definition


Wind Chill Definition


Weather Definition


TIME
00:00 Legend Double Dagger 2.5 -1.2 77 5 32 16.1 99.57     LegendNANA
01:00 Legend Double Dagger 2.4 -1.3 77 5 15 16.1 99.64     LegendNANA
02:00 Legend Double Dagger 2.5 -1.5 75 7 21 16.1 99.64     LegendNANA
03:00 Legend Double Dagger 2.9 -2.0 70 6 17 16.1 99.65     LegendNANA
04:00 Legend Double Dagger 2.8 -2.2 70 8 21 16.1 99.65     LegendNANA
05:00 Legend Double Dagger 2.1 -1.7 76 7 26 16.1 99.67     LegendNANA
06:00 Legend Double Dagger 2.0 -1.6 77 8 21 16.1 99.70     LegendNANA
07:00 Legend Double Dagger 1.8 -1.8 77 6 39 16.1 99.65     LegendNANA
08:00 Legend Double Dagger 1.8 -2.0 76 6 28 16.1 99.73     LegendNANA
09:00 Legend Double Dagger 2.1 -2.3 73 7 32 16.1 99.76     LegendNANA
10:00 Legend Double Dagger 2.1 -2.4 72 6 28 16.1 99.73     LegendNANA
11:00 Legend Double Dagger 2.6 -1.6 74 5 37 16.1 99.64     LegendNANA
12:00 Legend Double Dagger 2.8 -1.2 75 7 39 16.1 99.65     LegendNANA
13:00 Legend Double Dagger 1.3 0.0 91 6 35 16.1 99.64     Rain
14:00 Legend Double Dagger 0.7 -0.5 92 6 45 9.7 99.64     Rain,Fog
15:00 Legend Double Dagger 0.3 -2.3 83 6 45 16.1 99.73     LegendNANA
16:00 Legend Double Dagger -0.4 -4.0 77 7 17 16.1 99.97   -5 LegendNANA
17:00 Legend Double Dagger -0.6 -2.3 88 5 34 16.1 100.02   -8 LegendNANA
18:00 Legend Double Dagger -0.8 -3.0 85 6 28 16.1 100.11   -7 LegendNANA
19:00 Legend Double Dagger -1.2 -2.8 89 7 24 16.1 100.13   -7 LegendNANA
20:00 Legend Double Dagger -0.9 -2.3 90 7 28 16.1 100.19   -7 LegendNANA
21:00 Legend Double Dagger -0.8 -4.9 74 9 18 16.1 100.29   -6 LegendNANA
22:00 Legend Double Dagger -1.5 -5.7 73 10 21 16.1 100.30   -7 LegendNANA
23:00 Legend Double Dagger -1.6 -7.4 65 10 17 16.1 100.32   -7 LegendNANA

Notes on Data Quality.

Legend

  • E = Estimated
  • M = Missing
  • NA = Not Available
  • ‡ = Partner data that is not subject to review by the National Climate Archives
Date modified: